Flag for United Kingdom

Past Weather in Colwyn Bay, Wales, United Kingdom — Yesterday and Last 2 Weeks

Now
69 °F

Mild.


Feels Like: 69 °F
Forecast: 74 / 62 °F
Wind: 2 mph from West

Location: Rhyl

Current Time: Aug 6, 2020 at 2:50:17 pm

Latest Report: Aug 6, 2020 at 2:00 pm


Visibility: 34 mi

Pressure: 29.99 "Hg

Humidity: 74%

Dew Point: 61 °F

Location of Colwyn BayLocation

Past Weather in Colwyn Bay — Graph

°F

Colwyn Bay Temperature Yesterday

Maximum temperature yesterday: 69 °F (at 3:00 pm)
Minimum temperature yesterday: 63 °F (at 9:00 pm)
Average temperature yesterday: 65 °F

High & Low Weather Summary for the Past Weeks

 TemperatureHumidityPressure
High85 °F (Jul 31, 2:00 pm)96% (Jul 23, 9:00 pm)30.16 "Hg (Jul 23, 9:00 pm)
Low50 °F (Aug 4, 12:00 am)40% (Jul 30, 3:00 pm)29.41 "Hg (Jul 27, 11:00 am)
Average61 °F78%29.88 "Hg
* Reported Jul 22 1:00 pm — Aug 6 1:00 pm, Colwyn Bay. Weather by CustomWeather, © 2020

Note: Actual official high and low records may vary slightly from our data, if they occured in-between our weather recording intervals... More about our weather records

Colwyn Bay Weather History for the Previous 24 Hours

Scroll right to see more
 ConditionsComfort  
Time TempWeatherWind HumidityBarometerVisibility
1:00 pm
Thu, Aug 6
70 °FMild.6 mph66%29.98 "Hg47 mi
12:00 pm68 °FMild.6 mph71%29.98 "Hg47 mi
11:00 am68 °FMild.3 mph74%29.98 "Hg47 mi
10:00 am66 °FMild.5 mph73%29.98 "Hg47 mi
9:00 am66 °FMild.5 mph80%29.97 "Hg47 mi
8:00 am64 °FMild.3 mph84%29.96 "HgN/A
7:00 am60 °FCool.6 mph93%29.96 "Hg25 mi
6:00 am58 °FCool.7 mph93%29.95 "Hg31 mi
5:00 am59 °FCool.5 mph95%29.93 "Hg43 mi
4:00 am59 °FCool.6 mph94%29.93 "Hg47 mi
3:00 am60 °FCool.6 mph91%29.91 "Hg47 mi
2:00 am61 °FCool.6 mph90%29.90 "Hg47 mi
1:00 am61 °FCool.5 mph90%29.88 "Hg43 mi
12:00 am63 °FMild.8 mph86%29.87 "Hg43 mi
11:00 pm
Wed, Aug 5
63 °FMild.8 mph85%29.85 "Hg47 mi
10:00 pm63 °FMild.9 mph85%29.82 "Hg47 mi
9:00 pm63 °FMild.14 mph85%29.79 "Hg47 mi
8:00 pm64 °FMild.15 mph82%29.76 "Hg31 mi
7:00 pm67 °FMild.10 mph78%29.74 "Hg40 mi
6:00 pm68 °FMild.12 mph78%29.73 "Hg37 mi
5:00 pm69 °FMild.12 mph80%29.71 "Hg40 mi
4:00 pm68 °FMild.12 mph77%29.72 "Hg47 mi
3:00 pm69 °FMild.15 mph74%29.71 "Hg40 mi
2:00 pm66 °FMild.9 mph75%29.72 "Hg31 mi
Weather by CustomWeather, © 2020

See weather overview